Weather History for North Adams, MA

Change the Weather History Date:

Friday, December 2, 2011

  Actual Average Record
Temperature  
Mean Temperature 34 °F -  
Max Temperature 45 °F 39 °F 62 °F (1998)
Min Temperature 23 °F 24 °F 12 °F (2003)
Degree Days  
Heating Degree Days 31    
Moisture  
Dew Point 25 °F    
Average Humidity 68    
Maximum Humidity 88    
Minimum Humidity 40    
Precipitation  
Precipitation 0.00 in - - ()
Sea Level Pressure  
Sea Level Pressure 30.37 in    
Wind  
Wind Speed 3 mph (WSW)    
Max Wind Speed 12 mph    
Max Gust Speed -    
Visibility 10 miles    
Events Rain    
Averages and records for this station are not official NWS values.
T = Trace of Precipitation, MM = Missing Value Source: NWS Daily Summary

Daily Weather History Graph

Daily Weather History Graph

Search for Another Location

Airport:

Trip Planner

Search our weather history database for the weather conditions in past years. The results will help you decide how hot, cold, wet, or windy it might be!

Date:

Astronomy

Dec. 02, 2011 Rise Set
Actual Time 7:04 AM EST 4:19 PM EST
Civil Twilight 6:32 AM EST 4:51 PM EST
Nautical Twilight 5:57 AM EST 5:26 PM EST
Astronomical Twilight 5:23 AM EST 6:00 PM EST
Moon 12:06 PM EST (12/2) No Moon Set
Length of Visible Light 10h 19m
Length of Day
9h 15m
First Quarter, 53% of the Moon is Illuminated
Dec 2
First Quarter
Dec 10
Full
Dec 17
Last Quarter
Dec 24
New
Jan 1
First Quarter

Hourly Weather History & Observations

Time (EST) Temp. Windchill Dew Point Humidity Pressure Visibility Wind Dir Wind Speed Gust Speed Precip Events Conditions
12:52 AM 24.1 °F - 19.9 °F 84% 30.33 in 10.0 mi Calm Calm - N/A   Clear
1:52 AM 23.0 °F - 19.9 °F 88% 30.33 in 10.0 mi Calm Calm - N/A   Clear
2:52 AM 23.0 °F - 19.0 °F 85% 30.32 in 10.0 mi Calm Calm - N/A   Clear
4:52 AM 23.0 °F - 19.0 °F 85% 30.31 in 10.0 mi Calm Calm - N/A   Clear
5:52 AM 23.0 °F 18.4 °F 19.0 °F 85% 30.32 in 10.0 mi SW 3.5 mph - N/A   Clear
8:52 AM 30.0 °F 22.4 °F 24.1 °F 79% 30.31 in 10.0 mi ESE 8.1 mph - N/A   Clear
10:52 AM 42.1 °F 40.2 °F 27.0 °F 55% 30.28 in 10.0 mi Variable 3.5 mph - N/A   Clear
11:52 AM 44.1 °F 40.8 °F 26.1 °F 49% 30.26 in 10.0 mi Variable 5.8 mph - N/A   Overcast
12:52 PM 45.0 °F 41.2 °F 25.0 °F 46% 30.25 in 10.0 mi SW 6.9 mph - N/A   Clear
2:52 PM 45.0 °F 41.2 °F 21.9 °F 40% 30.26 in 10.0 mi WNW 6.9 mph - N/A   Overcast
3:52 PM 41.0 °F 38.0 °F 26.1 °F 55% 30.30 in 10.0 mi Variable 4.6 mph - N/A   Overcast
4:52 PM 39.9 °F 35.8 °F 24.1 °F 53% 30.33 in 10.0 mi WSW 5.8 mph - N/A   Overcast
5:52 PM 39.9 °F 37.8 °F 26.1 °F 58% 30.37 in 10.0 mi Variable 3.5 mph - N/A   Overcast
6:16 PM 39.2 °F 34.2 °F 28.4 °F 65% 30.36 in 10.0 mi Variable 6.9 mph - N/A   Overcast
6:52 PM 39.0 °F 31.8 °F 30.0 °F 70% 30.40 in 10.0 mi West 11.5 mph - 0.00 in Rain Light Rain
7:22 PM 37.4 °F 30.3 °F 28.4 °F 70% 30.39 in 10.0 mi West 10.4 mph - 0.00 in   Overcast
7:52 PM 37.0 °F 31.6 °F 28.0 °F 70% 30.43 in 10.0 mi West 6.9 mph - 0.00 in   Overcast
8:52 PM 37.0 °F 32.4 °F 28.9 °F 73% 30.46 in 10.0 mi West 5.8 mph - N/A   Overcast
9:40 PM 37.4 °F 32.8 °F 28.4 °F 70% 30.45 in 10.0 mi West 5.8 mph - N/A   Overcast
9:52 PM 37.0 °F 31.6 °F 28.9 °F 73% 30.48 in 10.0 mi West 6.9 mph - N/A   Overcast
10:45 PM 37.4 °F 32.8 °F 28.4 °F 70% 30.48 in 10.0 mi West 5.8 mph - N/A   Overcast
11:43 PM 35.6 °F - 28.4 °F 75% 30.49 in 10.0 mi Calm Calm - N/A   Overcast
11:52 PM 36.0 °F 33.3 °F 28.9 °F 76% 30.51 in 10.0 mi Variable 3.5 mph - N/A   Mostly Cloudy